Retour au catalogue

TELSTAR 302

ActifCommunicationsGEO
NORAD 15237·PAYLOAD·🇺🇸 United States

Lancé Aug 30, 1984 depuis Cape Canaveral Space Force Station

Loading…

TLE

FraisSource: Space-Track

Époque: Sep 14, 2026, 13:00 UTC

1 15237U 84093D   26257.54229454 -.00000061  00000-0  00000-0 0  9997
2 15237  14.0835 344.6925 0004059 198.9616 186.2136  0.99786655 47331

Suivez TELSTAR 302 en temps réel avec AllMySat

Download on the App Store